Morrisville, VT

8:19 PM EST on February 10, 2016 (GMT -0500)
Morrisville Stowe State

Weather History for KMVL - September, 2013

Change the Weather History Date:

Friday, September 6, 2013

  Actual Average Record
Temperature  
Mean Temperature 52 °F 61 °F  
Max Temperature 66 °F 74 °F 88 °F (2015)
Min Temperature 37 °F 49 °F 35 °F (2000)
Degree Days  
Heating Degree Days 13 5  
Month to date heating degree days 27 26  
Since 1 July heating degree days 96 121  
Cooling Degree Days 0 1  
Month to date cooling degree days 20 6  
Year to date cooling degree days 383 253  
Growing Degree Days 2 (Base 50)    
Moisture  
Dew Point 40 °F    
Average Humidity 67    
Maximum Humidity 100    
Minimum Humidity 34    
Precipitation  
Precipitation 0.00 in 0.10 in 0.20 in (2014)
Month to date precipitation 0.59 0.57  
Year to date precipitation 30.85 24.33  
Sea Level Pressure  
Sea Level Pressure 30.21 in    
Wind  
Wind Speed 1 mph (SSW)    
Max Wind Speed 12 mph    
Max Gust Speed 15 mph    
Visibility 7 miles    
Events Fog    
T = Trace of Precipitation, MM = Missing Value Source: NWS Daily Summary

Daily Weather History Graph

Daily Weather History Graph

Search for Another Location

Airport or City:

Trip Planner

Search our weather history database for the weather conditions in past years. The results will help you decide how hot, cold, wet, or windy it might be!

Date:

Astronomy

Sep. 06, 2013 Rise Set
Actual Time 6:19 AM EDT 7:17 PM EDT
Civil Twilight 5:49 AM EDT 7:47 PM EDT
Nautical Twilight 5:13 AM EDT 8:22 PM EDT
Astronomical Twilight 4:36 AM EDT 8:59 PM EDT
Moon 7:33 AM EDT (9/6) 7:34 PM EDT (9/6)
Length of Visible Light 13h 57m
Length of Day
12h 58m
New Moon, 1% of the Moon is Illuminated
Sep 6
New Moon
Sep 12
First Quarter
Sep 19
Full
Sep 26
Last Quarter
Oct 4
New

Hourly Weather History & Observations

Time (EDT) Temp. Dew Point Humidity Pressure Visibility Wind Dir Wind Speed Gust Speed Precip Events Conditions
12:54 AM 39.9 °F 37.9 °F 93% 30.21 in 10.0 mi Calm Calm - N/A   Clear
1:54 AM 39.0 °F 37.0 °F 93% 30.22 in 10.0 mi Calm Calm - N/A   Clear
2:54 AM 37.9 °F 36.0 °F 93% 30.22 in 10.0 mi Calm Calm - N/A   Clear
3:54 AM 37.0 °F 35.1 °F 93% 30.24 in 10.0 mi Calm Calm - N/A   Clear
4:01 AM 37.4 °F 35.6 °F 93% 30.22 in 10.0 mi Calm Calm - N/A   Partly Cloudy
4:22 AM 37.4 °F 35.6 °F 93% 30.22 in 10.0 mi Calm Calm - N/A   Mostly Cloudy
4:54 AM 37.9 °F 36.0 °F 93% 30.25 in 10.0 mi Calm Calm - N/A   Overcast
5:03 AM 37.4 °F 37.4 °F 100% 30.23 in 1.2 mi Calm Calm - N/A   Overcast
5:05 AM 37.4 °F 37.4 °F 100% 30.23 in 0.8 mi Calm Calm - N/A   Overcast
5:54 AM 37.0 °F 36.0 °F 96% 30.26 in 0.5 mi Calm Calm - N/A Fog Fog
6:54 AM 37.9 °F 37.0 °F 97% 30.28 in 0.2 mi Calm Calm - N/A Fog Fog
7:54 AM 39.9 °F 39.0 °F 97% 30.29 in 0.2 mi Calm Calm - N/A Fog Fog
8:32 AM 41.0 °F 39.2 °F 93% 30.27 in 1.2 mi Calm Calm - N/A   Overcast
8:39 AM 42.8 °F 41.0 °F 93% 30.27 in 0.8 mi Calm Calm - N/A   Overcast
8:47 AM 42.8 °F 42.8 °F 100% 30.27 in 1.2 mi Calm Calm - N/A   Overcast
8:54 AM 42.1 °F 42.1 °F 100% 30.30 in 1.8 mi Calm Calm - N/A   Overcast
9:00 AM 42.8 °F 42.8 °F 100% 30.27 in 3.0 mi Calm Calm - N/A   Overcast
9:41 AM 50.0 °F 44.6 °F 82% 30.27 in 10.0 mi Calm Calm - N/A   Scattered Clouds
9:54 AM 51.1 °F 45.0 °F 80% 30.27 in 10.0 mi Calm Calm - N/A   Clear
10:54 AM 59.0 °F 41.0 °F 51% 30.25 in 10.0 mi Variable 3.5 mph - N/A   Partly Cloudy
11:54 AM 61.0 °F 37.9 °F 42% 30.25 in 10.0 mi Calm Calm - N/A   Clear
12:54 PM 63.0 °F 37.9 °F 40% 30.22 in 10.0 mi Variable 3.5 mph - N/A   Clear
1:54 PM 64.9 °F 37.9 °F 37% 30.20 in 10.0 mi Variable 5.8 mph - N/A   Clear
2:54 PM 64.9 °F 35.1 °F 33% 30.17 in 10.0 mi Variable 4.6 mph - N/A   Clear
3:54 PM 66.0 °F 37.9 °F 36% 30.16 in 10.0 mi Variable 3.5 mph - N/A   Clear
4:54 PM 66.0 °F 39.9 °F 38% 30.14 in 10.0 mi Variable 3.5 mph - N/A   Clear
5:54 PM 64.0 °F 41.0 °F 43% 30.12 in 10.0 mi SSW 4.6 mph - N/A   Clear
6:54 PM 59.0 °F 46.9 °F 64% 30.12 in 10.0 mi Calm Calm - N/A   Clear
7:54 PM 55.0 °F 48.0 °F 77% 30.11 in 10.0 mi Calm Calm - N/A   Mostly Cloudy
8:54 PM 52.0 °F 46.9 °F 83% 30.11 in 10.0 mi Calm Calm - N/A   Clear
9:54 PM 51.1 °F 46.9 °F 86% 30.10 in 10.0 mi Calm Calm - N/A   Partly Cloudy
10:54 PM 48.9 °F 45.0 °F 86% 30.09 in 10.0 mi Calm Calm - N/A   Clear
11:54 PM 48.0 °F 45.0 °F 89% 30.09 in 10.0 mi Calm Calm - N/A   Clear